Location: Palo Alto
(37.4420°N, 122.1420°W)
Time: 09:49:31
(UTC-07:00)

X-37B - Pass Details

Date: 18 August 2020
Orbit: 386 x 387 km, 45.0° (Epoch: 18 September)

Event Time Altitude Azimuth Distance (km) Brightness Sun altitude
Rises 21:22:16 0° 299° (WNW) 2,265 6.3 -16.5°
Reaches altitude 10° 21:24:21 10° 302° (WNW) 1,409 4.8 -16.8°
Maximum altitude 21:27:30 69° 26° (NNE) 416 0.6 -17.4°
Enters shadow 21:28:01 55° 82° (E) 469 0.6 -17.5°
